DW9151 Weather Reports


Display with metric or nautical units.
time (UTC)temp
F
wind
direction
speed
MPH
gust
MPH
rain 1hr
in
rain 24hr
in
rain mn
in
humidity
%
barometer
mb
20260505024624 42 16 4.0 6.0 0.00 0.00 0.00 78 1014.6
20260505024124 42 16 4.0 7.0 0.00 0.00 0.00 78 1014.8
20260505023625 42 16 5.0 8.0 0.00 0.00 0.00 81 1014.8
20260505022625 42 17 6.0 8.0 0.00 0.00 0.00 81 1014.9
20260505021624 42 17 5.0 7.0 0.00 0.00 0.00 80 1014.8
20260505021124 43 18 5.0 7.0 0.00 0.00 0.00 80 1014.9
20260505020625 43 17 5.0 8.0 0.00 0.00 0.00 79 1015.0
20260505015125 43 17 3.0 6.0 0.00 0.00 0.00 80 1015.1
20260505014624 43 17 5.0 7.0 0.00 0.00 0.00 79 1015.2
20260505014124 43 17 3.0 6.0 0.00 0.00 0.00 78 1015.3
20260505013624 42 19 3.0 5.0 0.00 0.00 0.00 75 1015.3
20260505013124 42 18 2.0 5.0 0.00 0.00 0.00 76 1015.3
20260505012625 43 17 2.0 3.0 0.00 0.00 0.00 77 1015.3
20260505012124 43 17 3.0 7.0 0.00 0.00 0.00 80 1015.4
20260505011624 42 18 4.0 6.0 0.00 0.00 0.00 81 1015.5
20260505011124 42 14 5.0 8.0 0.00 0.00 0.00 81 1015.5
20260505010625 42 17 5.0 7.0 0.00 0.00 0.00 81 1015.5
20260505010125 42 16 5.0 8.0 0.00 0.00 0.00 81 1015.6
20260505005625 42 17 5.0 8.0 0.00 0.00 0.00 81 1015.7
20260505005125 42 17 5.0 7.0 0.00 0.00 0.00 80 1015.7
20260505004124 42 18 5.0 7.0 0.00 0.00 0.00 81 1015.9
20260505003624 42 16 5.0 7.0 0.00 0.00 0.00 81 1015.9
20260505002625 42 18 4.0 7.0 0.00 0.00 0.00 81 1016.1
20260505002124 42 15 3.0 5.0 0.00 0.00 0.00 81 1016.1
20260505001625 42 18 3.0 6.0 0.00 0.00 0.00 82 1016.2
20260505000125 42 19 2.0 3.0 0.00 0.00 0.00 82 1016.3
20260504235625 42 15 2.0 5.0 0.00 0.00 0.00 82 1016.4
20260504235125 42 14 3.0 5.0 0.00 0.00 0.00 83 1016.4
20260504234125 42 9 2.0 5.0 0.00 0.00 0.00 83 1016.4
20260504233624 42 9 3.0 6.0 0.00 0.00 0.00 83 1016.5
20260504233124 42 17 2.0 3.0 0.00 0.00 0.00 83 1016.4
20260504232625 42 13 3.0 5.0 0.00 0.00 0.00 84 1016.5
20260504232124 42 14 3.0 5.0 0.00 0.00 0.00 84 1016.5
20260504231624 42 15 3.0 6.0 0.00 0.00 0.00 85 1016.5
20260504230624 42 11 5.0 8.0 0.00 0.00 0.00 85 1016.4
20260504225624 42 11 4.0 7.0 0.00 0.00 0.00 85 1016.5
20260504225124 42 15 3.0 6.0 0.00 0.00 0.00 85 1016.6
20260504224625 42 8 4.0 9.0 0.00 0.00 0.00 85 1016.7
20260504224124 42 15 4.0 7.0 0.00 0.00 0.00 85 1016.7
20260504223625 42 11 3.0 7.0 0.00 0.00 0.00 85 1016.8
20260504223124 42 8 4.0 8.0 0.00 0.00 0.00 86 1016.7
20260504222624 42 13 3.0 5.0 0.00 0.00 0.00 86 1016.8
20260504222124 42 10 3.0 6.0 0.00 0.00 0.00 86 1016.8
20260504221124 42 12 3.0 7.0 0.00 0.00 0.00 85 1016.9
20260504220624 42 13 3.0 7.0 0.00 0.00 0.00 85 1016.9
20260504220124 42 16 4.0 8.0 0.00 0.00 0.00 84 1017.0
20260504215624 43 18 5.0 8.0 0.00 0.00 0.00 84 1017.0
20260504215124 43 10 5.0 8.0 0.00 0.00 0.00 84 1017.1
20260504214625 43 15 5.0 8.0 0.00 0.00 0.00 84 1017.1
20260504213624 43 14 3.0 6.0 0.00 0.00 0.00 84 1017.1
20260504213124 43 17 5.0 7.0 0.00 0.00 0.00 84 1017.3
20260504212624 43 15 4.0 8.0 0.00 0.00 0.00 84 1017.2
20260504212124 43 12 5.0 8.0 0.00 0.00 0.00 84 1017.3
20260504211624 43 12 6.0 12.0 0.00 0.00 0.00 84 1017.4
20260504211125 43 13 5.0 12.0 0.00 0.00 0.00 84 1017.4
20260504210624 43 16 3.0 8.0 0.00 0.00 0.00 83 1017.5
20260504210124 43 14 5.0 7.0 0.00 0.00 0.00 83 1017.5
20260504205624 43 15 5.0 7.0 0.00 0.00 0.00 82 1017.6
20260504205124 43 16 5.0 7.0 0.00 0.00 0.00 82 1017.6
20260504204624 43 18 5.0 7.0 0.00 0.00 0.00 83 1017.6
20260504204124 43 14 5.0 7.0 0.00 0.00 0.00 84 1017.6
20260504203624 43 17 5.0 8.0 0.00 0.00 0.00 84 1017.5
20260504203124 43 15 7.0 10.0 0.00 0.00 0.00 84 1017.6
20260504202624 43 11 4.0 7.0 0.00 0.00 0.00 85 1017.6
20260504202124 43 17 3.0 6.0 0.00 0.00 0.00 86 1017.6
20260504201624 43 14 6.0 8.0 0.00 0.00 0.00 87 1017.7
20260504201124 43 8 3.0 7.0 0.00 0.00 0.00 88 1017.7
20260504200624 43 3 3.0 7.0 0.00 0.00 0.00 88 1017.7
20260504194624 43 16 6.0 8.0 0.00 0.00 0.00 87 1017.8
20260504194125 43 15 5.0 9.0 0.00 0.00 0.00 86 1017.8
20260504193124 43 15 5.0 8.0 0.00 0.00 0.00 84 1017.7
20260504192624 43 14 6.0 7.0 0.00 0.00 0.00 83 1017.7
20260504192124 44 16 6.0 8.0 0.00 0.00 0.00 82 1017.7
20260504191624 44 15 3.0 6.0 0.00 0.00 0.00 81 1017.7
20260504191124 44 15 3.0 7.0 0.00 0.00 0.00 81 1017.7
20260504190624 44 12 5.0 7.0 0.00 0.00 0.00 81 1017.6
20260504190124 44 14 6.0 8.0 0.00 0.00 0.00 81 1017.6
20260504185623 44 14 6.0 7.0 0.00 0.00 0.00 81 1017.7
20260504185124 44 15 6.0 8.0 0.00 0.00 0.00 81 1017.6
20260504184624 44 15 6.0 7.0 0.00 0.00 0.00 81 1017.6
20260504184124 44 15 5.0 8.0 0.00 0.00 0.00 81 1017.6
20260504183624 44 13 6.0 8.0 0.00 0.00 0.00 81 1017.6
20260504183124 44 16 5.0 8.0 0.00 0.00 0.00 81 1017.6
20260504182624 44 15 5.0 8.0 0.00 0.00 0.00 81 1017.6
20260504182124 44 13 7.0 9.0 0.00 0.00 0.00 81 1017.6
20260504181624 44 16 6.0 9.0 0.00 0.00 0.00 81 1017.6
20260504181124 44 15 6.0 8.0 0.00 0.00 0.00 81 1017.4
20260504180124 44 15 4.0 8.0 0.00 0.00 0.00 82 1017.4
20260504175624 45 14 5.0 8.0 0.00 0.00 0.00 82 1017.4
20260504175123 45 12 6.0 8.0 0.00 0.00 0.00 82 1017.3
20260504174624 45 16 5.0 12.0 0.00 0.00 0.00 83 1017.4
20260504174124 45 16 5.0 9.0 0.00 0.00 0.00 83 1017.3
20260504173623 45 0 1.0 6.0 0.00 0.00 0.00 84 1017.3
20260504173123 45 13 6.0 9.0 0.00 0.00 0.00 86 1017.3
20260504172624 46 14 2.0 5.0 0.00 0.00 0.00 88 1017.4
20260504171124 46 15 6.0 9.0 0.00 0.00 0.00 87 1017.5
20260504170624 47 14 3.0 5.0 0.00 0.00 0.00 87 1017.5
20260504170124 47 14 5.0 9.0 0.00 0.00 0.00 86 1017.5
20260504160124 48 13 7.0 12.0 0.00 0.00 0.00 75 1017.7
20260504151123 49 15 6.0 9.0 0.00 0.00 0.00 74 1017.9
20260504150123 49 13 3.0 6.0 0.00 0.00 0.00 76 1017.9
20260504141123 50 14 3.0 10.0 0.00 0.00 0.00 73 1018.3
20260504140624 50 16 6.0 12.0 0.00 0.00 0.00 73 1018.3
20260504140124 50 15 5.0 9.0 0.00 0.00 0.00 72 1018.4
20260504130623 49 13 6.0 9.0 0.00 0.00 0.00 75 1018.6
20260504130124 49 13 6.0 10.0 0.00 0.00 0.00 73 1018.7
20260504120124 49 14 5.0 9.0 0.00 0.00 0.00 74 1018.6
20260504110624 51 15 3.0 8.0 0.00 0.00 0.00 73 1018.6
20260504090123 51 14 2.0 5.0 0.00 0.00 0.00 75 1018.6
20260504081623 49 12 4.0 9.0 0.00 0.00 0.00 75 1018.4
20260504081123 49 18 5.0 7.0 0.00 0.00 0.00 75 1018.4
20260504080124 50 16 5.0 10.0 0.00 0.00 0.00 74 1018.3
20260504060123 47 17 2.0 8.0 0.00 0.00 0.00 74 1017.8
20260504050623 46 8 3.0 9.0 0.00 0.00 0.00 69 1017.6
20260504050123 46 19 3.0 7.0 0.00 0.00 0.00 68 1017.6
20260504045623 46 21 3.0 8.0 0.00 0.00 0.00 69 1017.6
20260504045123 45 21 4.0 8.0 0.00 0.00 0.00 70 1017.5
20260504044122 45 23 3.0 7.0 0.00 0.00 0.00 70 1017.5
20260504043623 45 19 3.0 6.0 0.00 0.00 0.00 70 1017.5
20260504043123 45 19 2.0 5.0 0.00 0.00 0.00 70 1017.4
20260504042623 45 21 3.0 7.0 0.00 0.00 0.00 70 1017.4
20260504042123 44 20 3.0 6.0 0.00 0.00 0.00 70 1017.3
20260504041623 44 17 3.0 6.0 0.00 0.00 0.00 71 1017.3
20260504041123 44 15 3.0 7.0 0.00 0.00 0.00 71 1017.2
20260504040622 44 18 3.0 7.0 0.00 0.00 0.00 70 1017.3
20260504040123 44 17 3.0 6.0 0.00 0.00 0.00 70 1017.2
20260504035623 44 15 4.0 7.0 0.00 0.00 0.00 70 1017.2
20260504035123 44 12 3.0 6.0 0.00 0.00 0.00 70 1017.3
20260504034622 44 14 3.0 7.0 0.00 0.00 0.00 69 1017.3
20260504034123 44 22 3.0 8.0 0.00 0.00 0.00 69 1017.4
20260504033623 44 18 3.0 7.0 0.00 0.00 0.00 69 1017.4
20260504033123 44 19 2.0 5.0 0.00 0.00 0.00 69 1017.5
20260504032623 44 15 3.0 6.0 0.00 0.00 0.00 70 1017.4
20260504031622 44 20 3.0 7.0 0.00 0.00 0.00 70 1017.4
20260504031123 44 11 3.0 7.0 0.00 0.00 0.00 69 1017.5
20260504030623 44 14 3.0 9.0 0.00 0.00 0.00 69 1017.5
20260504030123 44 14 3.0 7.0 0.00 0.00 0.00 69 1017.4
20260504025623 44 17 3.0 8.0 0.00 0.00 0.00 70 1017.5